Location: Edisto_Beach
(32.4790°N, 80.3350°W)
Time: 21:57:17
(UTC-04:00)

Amateur Radio Satellites - All Passes

Search period start: 27 June 2017 21:27
Search period end: 28 June 2017 21:27
Location: Edisto_Beach, 32.4790°N, 80.3350°W

Satellite Date Start Highest point End Downlink Frequencies (MHz)
Time Altitude Azimuth
FO-29 27 Jun 21:30:01 21:33:34 14° 89° (E) 21:37:03 435.910
STRAND 1 27 Jun 21:32:05 21:36:41 34° 289° (WNW) 21:41:15 437.568
DELFI C3 27 Jun 21:36:17 21:39:19 22° 72° (ENE) 21:42:21 145.870
NO-84 27 Jun 21:40:02 21:43:37 42° 316° (NW) 21:47:29 435.350 FM
YUBILEINY 27 Jun 21:40:49 21:48:42 39° 87° (E) 21:56:36 435.215
BEESAT 2 27 Jun 21:42:50 21:46:44 62° 299° (WNW) 21:50:43 435.950
EO-88 27 Jun 21:58:46 22:01:51 26° 73° (ENE) 22:04:56 145.990 - 145.960
RS-15 27 Jun 22:01:45 22:13:40 62° 303° (WNW) 22:25:57 29.354- 29.394
AO-73 27 Jun 22:02:25 22:06:19 28° 263° (W) 22:10:15 145.935
UNISAT 6 27 Jun 22:15:07 22:17:37 14° 93° (E) 22:20:04 437.425
PRISM 27 Jun 22:16:23 22:18:16 13° 94° (E) 22:20:08 437.425
Oscar 11 27 Jun 22:27:43 22:30:42 18° 265° (W) 22:33:42 .
PCSat 27 Jun 22:38:25 22:43:25 39° 251° (WSW) 22:48:24 145.827
O/OREOS (USA 219) 27 Jun 23:02:50 23:04:40 12° 300° (WNW) 23:06:29 437.305
TIGRISAT 27 Jun 23:07:05 23:11:37 55° 100° (E) 23:16:01 435.000
DELFI C3 27 Jun 23:11:06 23:13:58 19° 264° (W) 23:16:50 145.870
FO-29 27 Jun 23:11:25 23:19:21 88° 104° (ESE) 23:26:57 435.910
M-CUBED/EXP-1 PRIME 27 Jun 23:16:02 23:19:54 67° 288° (WNW) 23:24:04 437.505
SO-50 27 Jun 23:26:15 23:30:40 51° 59° (ENE) 23:35:06 436.795
ESTCUBE 1 27 Jun 23:32:23 23:36:19 31° 72° (ENE) 23:40:17 437.505/2401.250
EO-88 27 Jun 23:33:30 23:35:29 14° 266° (W) 23:37:29 145.990 - 145.960
YUBILEINY 27 Jun 23:37:19 23:45:19 39° 283° (WNW) 23:53:25 435.215
LO-87 27 Jun 23:45:57 23:49:30 85° 77° (ENE) 23:53:04 145.935 - 145.965
PRISM 27 Jun 23:49:49 23:53:37 37° 287° (WNW) 23:57:25 437.425
UNISAT 6 27 Jun 23:50:08 23:54:28 41° 287° (WNW) 23:58:41 437.425
POLYITAN 1 28 Jun 00:09:01 00:11:14 14° 94° (E) 00:13:27 437.675
QB50P2 28 Jun 00:19:07 00:22:21 21° 96° (E) 00:25:33 145.880/145.840
RS-15 28 Jun 00:21:40 00:29:25 18° 329° (NNW) 00:37:15 29.354- 29.394
AIST 2D 28 Jun 00:40:13 00:43:43 84° 281° (WNW) 00:47:11 435.315
EO-79 28 Jun 00:42:05 00:46:01 36° 98° (E) 00:49:56 145.935-145.965
TIGRISAT 28 Jun 00:46:10 00:47:42 12° 294° (WNW) 00:49:14 435.000
50 SAT 28 Jun 00:46:11 00:48:15 15° 71° (ENE) 00:50:19 437.505
DUCHIFAT 1 28 Jun 00:52:53 00:56:51 38° 99° (E) 01:00:47 145.980
VELOX 1 28 Jun 00:58:35 01:02:55 68° 75° (ENE) 01:07:17 145.980
FO-29 28 Jun 00:58:38 01:03:16 17° 299° (WNW) 01:07:51 435.910
SPROUT 28 Jun 00:59:52 01:04:07 78° 76° (ENE) 01:08:24 437.525
NANOSAT C BR1 28 Jun 01:02:41 01:06:54 60° 101° (E) 01:11:03 145.865
SO-50 28 Jun 01:08:42 01:10:39 13° 252° (WSW) 01:12:37 436.795
ESTCUBE 1 28 Jun 01:09:58 01:13:07 19° 265° (W) 01:16:15 437.505/2401.250
DX 1 28 Jun 01:10:27 01:14:04 27° 71° (ENE) 01:17:41 434.975-435.025
UKube-1 28 Jun 01:22:20 01:25:46 24° 70° (ENE) 01:29:14 .
POLYITAN 1 28 Jun 01:43:10 01:47:06 37° 287° (WNW) 01:51:00 437.675
BUGSAT 1 28 Jun 01:52:11 01:56:22 55° 101° (E) 02:00:28 437.445
QB50P2 28 Jun 01:54:32 01:58:02 25° 289° (WNW) 02:01:30 145.880/145.840
Gurwin Techsat 1B 28 Jun 02:08:44 02:12:13 17° 94° (E) 02:15:41 435.225
50 SAT 28 Jun 02:18:20 02:20:50 19° 263° (W) 02:23:21 437.505
EO-79 28 Jun 02:19:01 02:21:25 15° 292° (WNW) 02:23:48 145.935-145.965
DUCHIFAT 1 28 Jun 02:29:57 02:32:07 14° 292° (WNW) 02:34:17 145.980
Oscar 19 28 Jun 02:32:10 02:37:10 52° 100° (E) 02:42:09 437.125/150
DX 1 28 Jun 02:47:00 02:50:10 20° 264° (W) 02:53:22 434.975-435.025
RS-15 28 Jun 02:47:18 02:49:52 11° 8° (N) 02:52:25 29.354- 29.394
MOZHAYETS 4 28 Jun 02:58:18 03:01:01 16° 68° (ENE) 03:03:43
UKube-1 28 Jun 02:58:20 03:01:40 22° 263° (W) 03:05:02 .
ITUPSAT 1 28 Jun 03:41:01 03:45:48 78° 75° (ENE) 03:50:38 437.325
Gurwin Techsat 1B 28 Jun 03:47:15 03:52:18 45° 288° (WNW) 03:57:20 435.225
BEESAT 28 Jun 03:49:09 03:53:56 83° 258° (WSW) 03:58:45 436.000
Oscar 19 28 Jun 04:13:08 04:15:59 15° 294° (WNW) 04:18:51 437.125/150
KKS-1 28 Jun 04:13:50 04:14:58 11° 66° (ENE) 04:16:07 437.445
AO-7 28 Jun 04:15:05 04:22:52 41° 101° (E) 04:30:35 .
NO-84 28 Jun 04:17:50 04:21:06 20° 37° (NE) 04:24:19 435.350 FM
MOZHAYETS 4 28 Jun 04:33:23 04:37:46 42° 261° (W) 04:42:10
ITAMSAT 1 28 Jun 04:54:37 04:59:53 86° 283° (WNW) 05:05:05 435.822/435.867
RS-15 28 Jun 04:58:31 05:08:38 29° 43° (NE) 05:18:18 29.354- 29.394
AO-85 28 Jun 05:01:38 05:04:49 21° 55° (NE) 05:08:08 145.980
BEESAT 3 28 Jun 05:01:46 05:02:38 11° 49° (NE) 05:03:30 437.485
CUBESAT XI-V 28 Jun 05:21:29 05:26:07 75° 258° (WSW) 05:30:45 437.345
KKS-1 28 Jun 05:46:40 05:50:59 55° 259° (W) 05:55:21 437.445
NO-84 28 Jun 05:54:42 05:58:56 50° 233° (SW) 06:02:59 435.350 FM
BEESAT 2 28 Jun 06:05:27 06:08:19 18° 53° (NE) 06:11:09 435.950
AO-7 28 Jun 06:07:55 06:15:25 39° 296° (WNW) 06:22:56 .
STARS 28 Jun 06:08:16 06:12:38 80° 258° (WSW) 06:17:03 437.465
CUTE-I 28 Jun 06:21:05 06:22:54 12° 92° (E) 06:24:44 437.470
XW-2C 28 Jun 06:24:10 06:24:40 10° 93° (E) 06:25:08 145.795 - 145.815
BEESAT 3 28 Jun 06:36:38 06:40:33 58° 245° (WSW) 06:44:24 437.485
DOVE 4 28 Jun 06:40:34 06:45:34 57° 100° (E) 06:50:43 437.250
AO-85 28 Jun 06:41:25 06:45:10 30° 247° (WSW) 06:49:09 145.980
Tancredo 1 28 Jun 06:48:44 06:51:39 51° 133° (SE) 06:54:35 437.200
NUDT-PHONESAT 28 Jun 07:00:21 07:03:23 24° 97° (E) 07:06:24 437.300
STRAND 1 28 Jun 07:05:16 07:09:01 21° 68° (ENE) 07:12:47 437.568
RS-15 28 Jun 07:10:24 07:22:26 80° 245° (WSW) 07:33:46 29.354- 29.394
HO-68 28 Jun 07:12:03 07:14:44 12° 92° (E) 07:17:24 435.675
XW-2F 28 Jun 07:24:27 07:28:11 74° 100° (E) 07:31:53 145.980 - 146.000
XW-2D 28 Jun 07:30:30 07:34:16 82° 282° (WNW) 07:38:00 145.860 - 145.880
O/OREOS (USA 219) 28 Jun 07:35:09 07:39:27 46° 68° (ENE) 07:43:44 437.305
XW-2B 28 Jun 07:39:38 07:43:21 63° 283° (WNW) 07:47:02 145.730 - 145.750
ISS 28 Jun 07:42:01 07:45:16 83° 320° (NW) 07:48:32 437.550
LilacSat-2 28 Jun 07:42:28 07:46:09 52° 284° (WNW) 07:49:48 437.200
BEESAT 2 28 Jun 07:42:32 07:46:05 30° 248° (WSW) 07:49:35 435.950
XW-2C 28 Jun 07:55:30 07:58:58 36° 286° (WNW) 08:02:24 145.795 - 145.815
CUTE-I 28 Jun 07:57:58 08:03:19 67° 285° (WNW) 08:08:38 437.470
CUTE 1.7 + AOD 2 28 Jun 07:58:31 08:01:56 24° 96° (E) 08:05:20 437.475
YUBILEINY 28 Jun 07:59:05 08:03:07 14° 66° (ENE) 08:07:06 435.215
KAITUO 1B 28 Jun 08:02:18 08:05:45 39° 285° (WNW) 08:09:11 145.475/437.950
AAUSAT CUBESAT 2 28 Jun 08:20:04 08:20:43 10° 93° (E) 08:21:22 437.432
DOVE 4 28 Jun 08:20:08 08:22:45 14° 292° (WNW) 08:25:25 437.250
Tancredo 1 28 Jun 08:26:04 08:27:26 12° 328° (NNW) 08:28:49 437.200
NUDT-PHONESAT 28 Jun 08:34:49 08:37:02 15° 290° (WNW) 08:39:15 437.300
XW-2A 28 Jun 08:37:20 08:40:39 52° 100° (E) 08:43:56 145.665 - 145.685
CUBEBUG 2 28 Jun 08:39:42 08:44:03 38° 98° (E) 08:48:15 437.445
STRAND 1 28 Jun 08:43:09 08:47:52 37° 261° (W) 08:52:39 437.568
HO-68 28 Jun 08:55:55 09:03:08 88° 287° (WNW) 09:10:17 435.675
ZACube-1 28 Jun 08:56:24 08:59:16 17° 94° (E) 09:02:05 437.345
UWE-3 28 Jun 09:07:05 09:11:26 45° 99° (E) 09:15:38 435.000/436.395/437.385
SEEDS 28 Jun 09:10:21 09:14:28 66° 283° (WNW) 09:18:35 437.485
O/OREOS (USA 219) 28 Jun 09:16:46 09:18:22 12° 261° (W) 09:19:56 437.305
FO-29 28 Jun 09:19:49 09:24:30 23° 63° (ENE) 09:29:35 435.910
RS-15 28 Jun 09:27:34 09:32:45 14° 263° (W) 09:37:52 29.354- 29.394
CUTE 1.7 + AOD 2 28 Jun 09:34:27 09:37:35 21° 289° (WNW) 09:40:42 437.475
YUBILEINY 28 Jun 09:52:14 10:01:07 86° 85° (E) 10:09:53 435.215
AAUSAT CUBESAT 2 28 Jun 09:52:25 09:56:20 45° 285° (WNW) 10:00:15 437.432
AO-73 28 Jun 09:54:22 09:58:45 81° 101° (E) 10:03:01 145.935
M-CUBED/EXP-1 PRIME 28 Jun 09:58:22 10:01:38 63° 72° (ENE) 10:04:51 437.505
TIGRISAT 28 Jun 10:01:06 10:05:00 28° 71° (ENE) 10:08:59 435.000
CUBEBUG 2 28 Jun 10:17:23 10:20:15 16° 292° (WNW) 10:23:04 437.445
Oscar 11 28 Jun 10:17:51 10:22:07 69° 284° (WNW) 10:26:23 .
ZACube-1 28 Jun 10:31:41 10:35:35 31° 288° (WNW) 10:39:22 437.345
PRISM 28 Jun 10:33:52 10:37:54 77° 76° (ENE) 10:41:57 437.425
UNISAT 6 28 Jun 10:43:20 10:47:55 85° 259° (WSW) 10:52:37 437.425
UWE-3 28 Jun 10:45:16 10:47:24 13° 293° (WNW) 10:49:29 435.000/436.395/437.385
HO-68 28 Jun 10:46:33 10:49:48 14° 302° (WNW) 10:53:02 435.675
DELFI C3 28 Jun 10:51:11 10:55:07 69° 101° (E) 10:59:03 145.870
FO-29 28 Jun 11:03:15 11:08:59 49° 262° (W) 11:15:30 435.910
EO-88 28 Jun 11:04:47 11:08:24 66° 101° (E) 11:12:00 145.990 - 145.960
AIST 2D 28 Jun 11:11:00 11:13:15 16° 71° (ENE) 11:15:30 435.315
EO-79 28 Jun 11:31:02 11:33:34 16° 68° (ENE) 11:36:07 145.935-145.965
PCSat 28 Jun 11:31:46 11:37:00 52° 111° (ESE) 11:42:16 145.827
TIGRISAT 28 Jun 11:38:03 11:41:36 22° 265° (W) 11:45:14 435.000
DUCHIFAT 1 28 Jun 11:41:06 11:43:44 16° 69° (ENE) 11:46:23 145.980
JUGNU 28 Jun 11:42:44 11:46:14 16° 166° (SSE) 11:49:46 437.505
NANOSAT C BR1 28 Jun 11:50:31 11:53:55 24° 71° (ENE) 11:57:19 145.865
YUBILEINY 28 Jun 11:52:15 11:56:38 15° 281° (W) 12:01:01 435.215
POLYITAN 1 28 Jun 12:30:16 12:34:31 86° 77° (ENE) 12:38:50 437.675
BUGSAT 1 28 Jun 12:37:53 12:40:59 21° 70° (ENE) 12:44:06 437.445
QB50P2 28 Jun 12:41:23 12:45:34 62° 259° (W) 12:49:49 145.880/145.840
AIST 2D 28 Jun 12:43:29 12:46:14 21° 264° (W) 12:49:01 435.315
LO-87 28 Jun 12:50:40 12:54:04 37° 285° (WNW) 12:57:26 145.935 - 145.965
SPROUT 28 Jun 12:51:00 12:54:01 19° 95° (E) 12:57:02 437.525
VELOX 1 28 Jun 12:54:00 12:57:06 18° 95° (E) 13:00:11 145.980
EO-79 28 Jun 13:05:08 13:08:59 34° 262° (W) 13:12:53 145.935-145.965
ESTCUBE 1 28 Jun 13:05:20 13:09:45 62° 285° (WNW) 13:14:10 437.505/2401.250
DUCHIFAT 1 28 Jun 13:15:18 13:19:05 32° 262° (W) 13:22:55 145.980
PCSat 28 Jun 13:16:56 13:20:40 19° 307° (NW) 13:24:25 145.827
Gurwin Techsat 1B 28 Jun 13:25:36 13:29:12 19° 67° (ENE) 13:32:48 435.225
NANOSAT C BR1 28 Jun 13:26:14 13:29:30 22° 264° (W) 13:32:47 145.865
JUGNU 28 Jun 13:30:02 13:34:37 23° 176° (S) 13:39:16 437.505
SRMSAT 28 Jun 13:35:14 13:37:07 11° 162° (SSE) 13:39:01 437.500
SO-50 28 Jun 13:35:53 13:40:17 48° 114° (ESE) 13:44:39 436.795
50 SAT 28 Jun 13:44:18 13:47:19 29° 98° (E) 13:50:19 437.505
Oscar 19 28 Jun 13:44:24 13:49:19 48° 73° (ENE) 13:54:15 437.125/150
BUGSAT 1 28 Jun 14:12:47 14:16:09 24° 264° (W) 14:19:33 437.445
ISS 28 Jun 14:14:23 14:16:20 15° 33° (NNE) 14:18:15 437.550
SPROUT 28 Jun 14:26:12 14:29:52 28° 288° (WNW) 14:33:32 437.525
VELOX 1 28 Jun 14:29:38 14:33:31 31° 288° (WNW) 14:37:25 145.980
DX 1 28 Jun 14:38:10 14:42:33 83° 282° (WNW) 14:46:56 434.975-435.025
UKube-1 28 Jun 14:48:35 14:52:54 84° 100° (E) 14:57:13 .
Tancredo 1 28 Jun 14:51:43 14:54:45 77° 44° (NE) 14:57:46 437.200
Gurwin Techsat 1B 28 Jun 15:03:42 15:08:44 44° 260° (W) 15:13:48 435.225
AO-7 28 Jun 15:09:11 15:16:38 38° 64° (ENE) 15:24:07 .
SO-50 28 Jun 15:18:13 15:20:57 16° 309° (NW) 15:23:43 436.795
JUGNU 28 Jun 15:18:34 15:23:05 22° 186° (S) 15:27:35 437.505
50 SAT 28 Jun 15:18:46 15:19:45 11° 291° (WNW) 15:20:45 437.505
SRMSAT 28 Jun 15:21:18 15:25:39 21° 171° (S) 15:29:58 437.500
Oscar 19 28 Jun 15:25:47 15:28:48 16° 266° (W) 15:31:50 437.125/150
ITUPSAT 1 28 Jun 15:46:34 15:50:41 28° 97° (E) 15:54:46 437.325
ISS 28 Jun 15:49:49 15:53:01 50° 228° (SW) 15:56:12 437.550
BEESAT 28 Jun 15:54:06 15:58:28 35° 99° (E) 16:02:48 436.000
ITAMSAT 1 28 Jun 16:07:49 16:13:01 90° 251° (WSW) 16:18:16 435.822/435.867
MOZHAYETS 4 28 Jun 16:32:39 16:37:12 64° 101° (E) 16:41:42
AO-7 28 Jun 17:01:32 17:09:12 41° 259° (W) 17:16:57 .
JUGNU 28 Jun 17:08:34 17:11:28 14° 196° (SSW) 17:14:21 437.505
SRMSAT 28 Jun 17:09:33 17:14:14 24° 182° (S) 17:18:55 437.500
CUBESAT XI-V 28 Jun 17:22:42 17:26:58 37° 98° (E) 17:31:14 437.345
ITUPSAT 1 28 Jun 17:24:34 17:28:19 23° 291° (WNW) 17:32:04 437.325
BEESAT 28 Jun 17:32:36 17:35:56 19° 292° (WNW) 17:39:15 436.000
CUTE-I 28 Jun 17:38:28 17:40:56 13° 64° (ENE) 17:43:24 437.470
KKS-1 28 Jun 17:42:04 17:46:17 38° 99° (E) 17:50:26 437.445
DOVE 4 28 Jun 17:42:25 17:45:59 28° 72° (ENE) 17:49:40 437.250
XW-2F 28 Jun 18:01:36 18:04:12 18° 71° (ENE) 18:06:48 145.980 - 146.000
STARS 28 Jun 18:02:34 18:06:16 26° 97° (E) 18:09:58 437.465
XW-2D 28 Jun 18:07:32 18:10:35 23° 72° (ENE) 18:13:39 145.860 - 145.880
XW-2B 28 Jun 18:16:20 18:19:39 29° 73° (ENE) 18:22:59 145.730 - 145.750
LilacSat-2 28 Jun 18:19:32 18:23:04 34° 74° (ENE) 18:26:35 437.200
XW-2C 28 Jun 18:31:35 18:35:17 47° 75° (ENE) 18:38:58 145.795 - 145.815
KAITUO 1B 28 Jun 18:37:15 18:40:48 41° 75° (ENE) 18:44:22 145.475/437.950
CUTE 1.7 + AOD 2 28 Jun 18:49:38 18:50:00 10° 67° (ENE) 18:50:23 437.475
SRMSAT 28 Jun 18:58:51 19:02:49 18° 191° (SSW) 19:06:45 437.500
CUBESAT XI-V 28 Jun 19:01:05 19:04:00 17° 291° (WNW) 19:06:54 437.345
NUDT-PHONESAT 28 Jun 19:07:43 19:11:27 71° 259° (W) 19:15:12 437.300
AO-85 28 Jun 19:12:31 19:15:20 18° 111° (ESE) 19:18:03 145.980
CUTE-I 28 Jun 19:15:05 19:20:21 64° 258° (WSW) 19:25:40 437.470
RS-15 28 Jun 19:17:32 19:26:23 25° 101° (E) 19:35:20 29.354- 29.394
HO-68 28 Jun 19:19:22 19:26:03 44° 68° (ENE) 19:32:46 435.675
KKS-1 28 Jun 19:19:47 19:22:27 16° 293° (WNW) 19:25:07 437.445
DOVE 4 28 Jun 19:21:02 19:23:43 17° 266° (W) 19:26:27 437.250
NO-84 28 Jun 19:33:10 19:34:03 11° 118° (ESE) 19:34:56 435.350 FM
CUBEBUG 2 28 Jun 19:33:35 19:36:52 20° 69° (ENE) 19:40:13 437.445
XW-2F 28 Jun 19:35:03 19:38:07 23° 264° (W) 19:41:12 145.980 - 146.000
STARS 28 Jun 19:39:00 19:42:26 22° 290° (WNW) 19:45:51 437.465
XW-2D 28 Jun 19:42:03 19:44:40 18° 265° (W) 19:47:19 145.860 - 145.880
XW-2B 28 Jun 19:51:46 19:53:51 14° 266° (W) 19:55:55 145.730 - 145.750
LilacSat-2 28 Jun 19:55:56 19:57:24 12° 267° (W) 19:58:52 437.200
SEEDS 28 Jun 19:57:06 20:01:04 43° 75° (ENE) 20:05:02 437.485
UWE-3 28 Jun 19:59:36 20:03:09 22° 70° (ENE) 20:06:43 435.000/436.395/437.385
CUTE 1.7 + AOD 2 28 Jun 20:21:10 20:25:19 53° 260° (W) 20:29:28 437.475
BEESAT 3 28 Jun 20:21:29 20:25:24 69° 116° (ESE) 20:29:23 437.485
PCSat 28 Jun 20:25:23 20:28:53 17° 53° (NE) 20:32:22 145.827
XW-2A 28 Jun 20:36:22 20:39:34 38° 261° (W) 20:42:49 145.665 - 145.685
AAUSAT CUBESAT 2 28 Jun 20:37:20 20:41:22 59° 76° (ENE) 20:45:25 437.432
AO-73 28 Jun 20:44:47 20:48:54 35° 73° (ENE) 20:53:03 145.935
AO-85 28 Jun 20:51:54 20:55:29 28° 303° (WNW) 20:58:57 145.980
YUBILEINY 28 Jun 20:54:14 20:59:47 19° 81° (E) 21:05:22 435.215
STRAND 1 28 Jun 20:57:49 21:02:58 76° 284° (WNW) 21:08:05 437.568
NO-84 28 Jun 21:07:23 21:11:00 55° 314° (NW) 21:14:57 435.350 FM
Oscar 11 28 Jun 21:07:39 21:11:49 47° 75° (ENE) 21:16:00 .
HO-68 28 Jun 21:07:43 21:13:48 30° 263° (W) 21:19:55 435.675
CUBEBUG 2 28 Jun 21:09:04 21:13:11 33° 263° (W) 21:17:24 437.445
